Regional Weather Roundup
Issued by NWS

Home | Current Version | Previous Version | Text Only | Print | Product List | Glossary Off
Versions: 1 2 3 4 5 6 7 8 9 10 11 12 13 14 15 16 17 18 19 20 21 22 23 24 25 26 27 28 29 30 31 32 33 34 35 36 37 38 39 40 41 42 43 44 45 46 47 48 49 50

000
ASUS43 KBIS 031920
RWRND

NORTH DAKOTA REGIONAL WEATHER ROUNDUP
NATIONAL WEATHER SERVICE BISMARCK ND
200 PM CDT SUN MAY 03 2015

NOTE: "FAIR" INDICATES FEW OR NO CLOUDS BELOW 12,000 FEET WITH NO
SIGNIFICANT WEATHER AND/OR OBSTRUCTIONS TO VISIBILITY.


NDZ001>003-009>011-017-032000-
NORTHWEST NORTH DAKOTA

CITY           SKY/WX    TMP DP  RH WIND       PRES   REMARKS
WILLISTON      LGT RAIN  62  23  22 NW16G26   30.04S
MINOT          SUNNY     61  25  25 W18G31    29.98F
MINOT AFB      SUNNY     63  27  25 W18G28    29.97F
$$

NDZ018>021-031>035-040>046-032000-
SOUTHWEST NORTH DAKOTA

CITY           SKY/WX    TMP DP  RH WIND       PRES   REMARKS
BISMARCK       MOSUNNY   66  27  23 NW17G25   29.99S
DICKINSON      MOSUNNY   61  27  27 NW17      30.01F
GARRISON         N/A     63  24  22 NW21G31   29.99F
HETTINGER ARPT PTSUNNY   59  32  36 N7        30.04S
$$

NDZ004>008-012>016-024-026-027-054-032000-
NORTHEAST NORTH DAKOTA

CITY           SKY/WX    TMP DP  RH WIND       PRES   REMARKS
GRAND FORKS    PTSUNNY   67  27  22 NW14G25   29.89F
GRND FRKS AFB  PTSUNNY   68  23  18 N18G30    29.89F
DEVILS LAKE    SUNNY     63  27  25 NW21G28   29.92S
$$

NDZ022-023-025-028>030-036>039-047>053-032000-
SOUTHEAST NORTH DAKOTA

CITY           SKY/WX    TMP DP  RH WIND       PRES   REMARKS
FARGO          CLOUDY    66  27  23 N17G23    29.92R
JAMESTOWN      PTSUNNY   66  23  19 N21G28    29.93S
$$



USA.gov is the U.S. government's official web portal to all federal, state and local government web resources and services.